Location: Audinghen
(50.8518°N, 1.6129°E)
Time: 04:57:03
(UTC+00:00)

Cosmos 2082 - Pass Details

Date: 07 August 2020
Orbit: 834 x 855 km, 71.0° (Epoch: 19 September)

Event Time Altitude Azimuth Distance (km) Brightness Sun altitude
Exits shadow 03:34:55 - 240° (WSW) 2,488 5.5 -8.0°
Reaches altitude 10° 03:35:02 10° 240° (WSW) 2,446 5.4 -8.0°
Maximum altitude 03:40:19 41° 310° (NW) 1,202 4.4 -7.3°
Drops below altitude 10° 03:45:37 10° 21° (NNE) 2,456 7.1 -6.7°
Sets 03:48:13 0° 28° (NNE) 3,395 8.2 -6.3°
